GPS BIIR-2 (PRN 13)

Last updated on Sat Oct 25 2025 00:03:18 GMT+0000 (Coordinated Universal Time)

1 24876U 97035A 25296.87465514 .00000033 00000+0 00000+0 0 9999 2 24876 55.8695 107.8191 0096167 56.8580 304.0827 2.00563327207219
UTC large
Height (km)
Speed (km/s)
/
Latitude / Longitude
Inclination (degrees)
Orbital Period (minutes)
Azimuth
Elevation
Range (km)
Doppler Factor

Next 0 passes for location: London (51.5072 / 0.1276)

Sorry there are no passes over London.